Rogers, AR

6:50 AM CDT on July 26, 2017 (GMT -0500)
Rogers Municipal-Carter

Weather History for KROG - June, 2013

Change the Weather History Date:

Saturday, June 29, 2013

  Actual Average Record
Temperature  
Mean Temperature 75 °F -  
Max Temperature 86 °F 81 °F 100 °F (2012)
Min Temperature 64 °F 64 °F 53 °F (2000)
Cooling Degree Days 10    
Growing Degree Days 25 (Base 50)    
Moisture  
Dew Point 54 °F    
Average Humidity 52    
Maximum Humidity 84    
Minimum Humidity 29    
Precipitation  
Precipitation 0.00 in - - ()
Sea Level Pressure  
Sea Level Pressure 29.85 in    
Wind  
Wind Speed 7 mph (NW)    
Max Wind Speed 22 mph    
Max Gust Speed 28 mph    
Visibility 10 miles    
Events      
Averages and records for this station are not official NWS values.
T = Trace of Precipitation, MM = Missing Value Source: NWS Daily Summary

Daily Weather History Graph

Daily Weather History Graph

Search for Another Location

Airport or City:

Trip Planner

Search our weather history database for the weather conditions in past years. The results will help you decide how hot, cold, wet, or windy it might be!

Date:

Astronomy

Jun. 29, 2013 Rise Set
Actual Time 6:01 AM CDT 8:38 PM CDT
Civil Twilight 5:31 AM CDT 9:08 PM CDT
Nautical Twilight 4:53 AM CDT 9:46 PM CDT
Astronomical Twilight 4:11 AM CDT 10:28 PM CDT
Moon 12:19 AM CDT (6/29) 1:00 PM CDT (6/29)
Length of Visible Light 15h 37m
Length of Day
14h 36m
Waning Gibbous, 55% of the Moon is Illuminated
Jun 29
Waning Gibbous
Jun 29
Last Quarter
Jul 8
New
Jul 15
First Quarter
Jul 22
Full

Hourly Weather History & Observations

Time (CDT) Temp. Heat Index Dew Point Humidity Pressure Visibility Wind Dir Wind Speed Gust Speed Precip Events Conditions
12:57 AM 71.1 °F - 59.0 °F 66% 29.87 in 10.0 mi North 3.5 mph - N/A   Clear
1:57 AM 70.0 °F - 59.0 °F 68% 29.87 in 10.0 mi North 3.5 mph - N/A   Clear
2:57 AM 66.9 °F - 59.0 °F 76% 29.87 in 10.0 mi Calm Calm - N/A   Clear
3:57 AM 64.0 °F - 59.0 °F 84% 29.87 in 10.0 mi West 3.5 mph - N/A   Clear
4:57 AM 64.9 °F - 57.0 °F 75% 29.87 in 10.0 mi West 4.6 mph - N/A   Clear
5:57 AM 64.0 °F - 57.0 °F 78% 29.88 in 10.0 mi WNW 4.6 mph - N/A   Clear
6:57 AM 64.0 °F - 57.9 °F 80% 29.88 in 10.0 mi WNW 4.6 mph - N/A   Clear
7:57 AM 69.1 °F - 60.1 °F 73% 29.88 in 10.0 mi NW 6.9 mph - N/A   Clear
8:57 AM 73.9 °F - 59.0 °F 59% 29.89 in 10.0 mi NW 6.9 mph - N/A   Clear
9:57 AM 78.1 °F - 55.9 °F 46% 29.88 in 10.0 mi NW 11.5 mph 16.1 mph N/A   Clear
10:57 AM 82.0 °F 81.2 °F 53.1 °F 37% 29.87 in 10.0 mi NNW 11.5 mph 18.4 mph N/A   Clear
11:57 AM 82.9 °F - 52.0 °F 34% 29.86 in 10.0 mi NNW 13.8 mph 24.2 mph N/A   Partly Cloudy
12:57 PM 82.9 °F - 51.1 °F 33% 29.86 in 10.0 mi NNW 12.7 mph 26.5 mph N/A   Mostly Cloudy
1:57 PM 84.9 °F - 50.0 °F 30% 29.83 in 10.0 mi NW 21.9 mph 27.6 mph N/A   Scattered Clouds
2:57 PM 86.0 °F - 50.0 °F 29% 29.83 in 10.0 mi NW 16.1 mph 24.2 mph N/A   Scattered Clouds
3:57 PM 84.9 °F - 51.1 °F 31% 29.82 in 10.0 mi NW 13.8 mph 23.0 mph N/A   Scattered Clouds
4:57 PM 86.0 °F - 50.0 °F 29% 29.81 in 10.0 mi NNW 13.8 mph 21.9 mph N/A   Scattered Clouds
5:57 PM 84.0 °F - 48.9 °F 29% 29.81 in 10.0 mi NW 15.0 mph 21.9 mph N/A   Clear
6:57 PM 82.0 °F - 51.1 °F 34% 29.80 in 10.0 mi NW 15.0 mph 20.7 mph N/A   Partly Cloudy
7:57 PM 80.1 °F - 52.0 °F 38% 29.81 in 10.0 mi NW 6.9 mph - N/A   Clear
8:57 PM 75.0 °F - 53.1 °F 46% 29.81 in 10.0 mi NW 4.6 mph - N/A   Clear
9:57 PM 72.0 °F - 53.1 °F 51% 29.83 in 10.0 mi WNW 3.5 mph - N/A   Clear
10:57 PM 69.1 °F - 53.1 °F 57% 29.83 in 10.0 mi NW 5.8 mph - N/A   Clear
11:57 PM 69.1 °F - 53.1 °F 57% 29.84 in 10.0 mi WNW 4.6 mph - N/A   Clear